Eastover, SC

11:40 PM EDT on May 28, 2017 (GMT -0400)
McEntire Angs

Weather History for KMMT - December, 2012

Change the Weather History Date:

Sunday, December 2, 2012

  Actual Average Record
Temperature  
Mean Temperature 58 °F -  
Max Temperature 72 °F 60 °F 75 °F (1998)
Min Temperature 44 °F 38 °F 24 °F (2002)
Degree Days  
Heating Degree Days 7    
Growing Degree Days 8 (Base 50)    
Moisture  
Dew Point 51 °F    
Average Humidity 84    
Maximum Humidity 100    
Minimum Humidity 54    
Precipitation  
Precipitation 0.00 in - - ()
Sea Level Pressure  
Sea Level Pressure 30.33 in    
Wind  
Wind Speed 1 mph (SSE)    
Max Wind Speed 9 mph    
Max Gust Speed -    
Visibility 8 miles    
Events      
Averages and records for this station are not official NWS values.
T = Trace of Precipitation, MM = Missing Value Source: NWS Daily Summary

Daily Weather History Graph

Daily Weather History Graph

Search for Another Location

Airport or City:

Trip Planner

Search our weather history database for the weather conditions in past years. The results will help you decide how hot, cold, wet, or windy it might be!

Date:

Astronomy

Dec. 02, 2012 Rise Set
Actual Time 7:11 AM EST 5:14 PM EST
Civil Twilight 6:44 AM EST 5:41 PM EST
Nautical Twilight 6:13 AM EST 6:12 PM EST
Astronomical Twilight 5:43 AM EST 6:42 PM EST
Moon 8:55 PM EST (12/2) 10:04 AM EST (12/2)
Length of Visible Light 10h 57m
Length of Day
10h 02m
Waning Gibbous, 86% of the Moon is Illuminated
Dec 2
Waning Gibbous
Dec 6
Last Quarter
Dec 13
New
Dec 20
First Quarter
Dec 28
Full

Hourly Weather History & Observations

Time (EST) Temp. Dew Point Humidity Pressure Visibility Wind Dir Wind Speed Gust Speed Precip Events Conditions
12:55 AM 44.4 °F 43.9 °F 98% 30.36 in 10.0 mi Calm Calm - N/A   Mostly Cloudy
1:55 AM 45.9 °F 44.6 °F 95% 30.37 in 10.0 mi Calm Calm - N/A   Overcast
2:55 AM 47.7 °F 46.6 °F 96% 30.37 in 10.0 mi Calm Calm - N/A   Overcast
3:55 AM 48.9 °F 46.8 °F 92% 30.36 in 10.0 mi Calm Calm - N/A   Overcast
4:55 AM 49.6 °F 47.5 °F 92% 30.35 in 10.0 mi Calm Calm - N/A   Overcast
5:55 AM 49.5 °F 47.7 °F 94% 30.36 in 10.0 mi Calm Calm - N/A   Overcast
6:55 AM 49.6 °F 47.8 °F 94% 30.37 in 10.0 mi Calm Calm - N/A   Overcast
7:55 AM 51.4 °F 50.2 °F 95% 30.38 in 10.0 mi Calm Calm - N/A   Mostly Cloudy
8:55 AM 55.6 °F 50.9 °F 84% 30.40 in 10.0 mi Calm Calm - N/A   Mostly Cloudy
9:55 AM 60.1 °F 50.4 °F 70% 30.40 in 10.0 mi ESE 5.8 mph - N/A   Mostly Cloudy
10:55 AM 64.2 °F 52.5 °F 66% 30.38 in 10.0 mi SSE 5.8 mph - N/A   Mostly Cloudy
11:55 AM 67.6 °F 53.6 °F 61% 30.35 in 10.0 mi SSE 5.8 mph - N/A   Mostly Cloudy
12:55 PM 72.1 °F 55.4 °F 56% 30.32 in 10.0 mi SE 8.1 mph - N/A   Mostly Cloudy
1:55 PM 72.5 °F 55.4 °F 55% 30.29 in 10.0 mi SSW 9.2 mph - N/A   Mostly Cloudy
2:55 PM 72.5 °F 55.0 °F 54% 30.27 in 10.0 mi SSW 3.5 mph - N/A   Mostly Cloudy
3:55 PM 71.1 °F 55.6 °F 58% 30.28 in 10.0 mi South 6.9 mph - N/A   Mostly Cloudy
4:55 PM 69.8 °F 55.8 °F 61% 30.27 in 10.0 mi Calm Calm - N/A   Partly Cloudy
5:55 PM 59.5 °F 53.2 °F 80% 30.28 in 10.0 mi Calm Calm - N/A   Clear
6:55 PM 56.5 °F 52.0 °F 85% 30.29 in 10.0 mi Calm Calm - N/A   Mostly Cloudy
7:55 PM 55.8 °F 52.7 °F 89% 30.29 in 10.0 mi ESE 3.5 mph - N/A   Scattered Clouds
8:55 PM 56.7 °F 53.4 °F 89% 30.30 in 10.0 mi Calm Calm - N/A   Mostly Cloudy
9:55 PM 54.3 °F 53.1 °F 95% 30.30 in 10.0 mi Calm Calm - N/A   Clear
10:55 PM 51.1 °F 50.5 °F 98% 30.30 in 5.0 mi Calm Calm - N/A   Clear
11:38 PM 50.0 °F 48.2 °F 94% 30.30 in 2.5 mi Calm Calm - N/A   Clear
11:45 PM 50.0 °F 50.0 °F 100% 30.30 in 3.0 mi Calm Calm - N/A   Clear
11:51 PM 50.0 °F 50.0 °F 100% 30.30 in 2.5 mi Calm Calm - N/A   Clear
11:55 PM 50.7 °F 50.4 °F 99% 30.30 in 2.0 mi Calm Calm - N/A   Clear
11:58 PM 50.0 °F 50.0 °F 100% 30.30 in 1.8 mi Calm Calm - N/A   Clear
11:59 PM 50.0 °F 50.0 °F 100% 30.30 in 2.0 mi Calm Calm - N/A   Clear